CW3816 Weather Reports


time (UTC)temp
C
wind
direction
speed
KPH
gust
KPH
rain 1hr
cm
rain 24hr
cm
rain mn
cm
humidity
%
barometer
mb
20260505220352 27 7 1.6 0.0 0.00 0.00 0.00 25 1009.1
20260505214853 27 89 1.6 0.0 0.00 0.00 0.00 23 1009.2
20260505213414 27 168 0.0 0.0 0.00 0.00 0.00 24 1009.3
20260505211850 27 237 1.6 0.0 0.00 0.00 0.00 23 1009.5
20260505210340 28 184 1.6 0.0 0.00 0.00 0.00 21 1009.3
20260505204853 28 52 0.0 0.0 0.00 0.00 0.00 22 1009.4
20260505203354 29 181 1.6 0.0 0.00 0.00 0.00 22 1009.3
20260505201846 29 227 0.0 0.0 0.00 0.00 0.00 21 1009.3
20260505200411 30 35 0.0 0.0 0.00 0.00 0.00 22 1009.3
20260505194843 30 76 0.0 0.0 0.00 0.00 0.00 23 1009.6
20260505193345 30 80 1.6 0.0 0.00 0.00 0.00 21 1009.7
20260505191847 30 28 1.6 0.0 0.00 0.00 0.00 23 1010.0
20260505190407 30 224 1.6 0.0 0.00 0.00 0.00 24 1010.3
20260505184843 30 48 0.0 0.0 0.00 0.00 0.00 23 1010.5
20260505183343 30 136 0.0 0.0 0.00 0.00 0.00 25 1010.6
20260505181843 30 138 1.6 0.0 0.00 0.00 0.00 24 1010.7
20260505180346 30 178 1.6 0.0 0.00 0.00 0.00 25 1010.9
20260505174840 30 319 0.0 0.0 0.00 0.00 0.00 24 1011.0
20260505173404 30 222 0.0 0.0 0.00 0.00 0.00 25 1011.1
20260505171840 30 128 0.0 0.0 0.00 0.00 0.00 25 1011.2
20260505170401 29 222 0.0 0.0 0.00 0.00 0.00 27 1011.5
20260505164856 30 205 0.0 0.0 0.00 0.00 0.00 26 1011.6
20260505163343 29 144 0.0 0.0 0.00 0.00 0.00 27 1011.9
20260505161903 28 88 0.0 0.0 0.00 0.00 0.00 33 1012.2
20260505160402 28 215 0.0 0.0 0.00 0.00 0.00 30 1012.3
20260505153347 27 68 0.0 0.0 0.00 0.00 0.00 34 1012.6
20260505151903 26 102 0.0 0.0 0.00 0.00 0.00 32 1012.4
20260505150349 26 164 0.0 0.0 0.00 0.00 0.00 36 1012.4
20260505140418 23 144 0.0 0.0 0.00 0.00 0.00 39 1012.5
20260505124842 18 89 0.0 0.0 0.00 0.00 0.00 54 1012.7
20260505123343 17 100 0.0 0.0 0.00 0.00 0.00 55 1012.7
20260505121857 16 229 0.0 0.0 0.00 0.00 0.00 57 1012.6
20260505120403 16 258 0.0 0.0 0.00 0.00 0.00 58 1012.5
20260505114838 15 134 0.0 0.0 0.00 0.00 0.00 59 1012.3
20260505113402 15 157 0.0 0.0 0.00 0.00 0.00 60 1012.3
20260505111842 15 275 0.0 0.0 0.00 0.00 0.00 64 1012.2
20260505110345 14 298 0.0 0.0 0.00 0.00 0.00 64 1012.1
20260505101900 14 298 0.0 0.0 0.00 0.00 0.00 62 1011.8
20260505100343 15 205 0.0 0.0 0.00 0.00 0.00 60 1011.7
20260505094846 15 196 0.0 0.0 0.00 0.00 0.00 60 1011.7
20260505093354 15 275 0.0 0.0 0.00 0.00 0.00 59 1011.7
20260505091908 15 178 0.0 0.0 0.00 0.00 0.00 58 1011.8
20260505090408 15 261 0.0 0.0 0.00 0.00 0.00 58 1011.7
20260505084843 15 301 0.0 0.0 0.00 0.00 0.00 58 1011.6
20260505083348 15 301 0.0 0.0 0.00 0.00 0.00 57 1011.5
20260505081848 15 162 0.0 0.0 0.00 0.00 0.00 59 1011.3
20260505080348 15 261 0.0 0.0 0.00 0.00 0.00 57 1011.3
20260505074849 15 261 0.0 0.0 0.00 0.00 0.00 58 1011.2
20260505073352 16 261 0.0 0.0 0.00 0.00 0.00 54 1011.2
20260505071847 16 270 0.0 0.0 0.00 0.00 0.00 54 1011.2
20260505070354 16 267 0.0 0.0 0.00 0.00 0.00 52 1011.1
20260505064855 16 241 0.0 0.0 0.00 0.00 0.00 52 1011.0
20260505063357 17 260 0.0 0.0 0.00 0.00 0.00 54 1011.1
20260505061858 16 323 0.0 0.0 0.00 0.00 0.00 53 1010.8
20260505060419 15 229 0.0 0.0 0.00 0.00 0.00 58 1010.9
20260505054858 14 229 0.0 0.0 0.00 0.00 0.00 65 1010.8
20260505053401 14 229 0.0 0.0 0.00 0.00 0.00 68 1010.8
20260505051844 14 229 0.0 0.0 0.00 0.00 0.00 68 1010.7
20260505050344 14 229 0.0 0.0 0.00 0.00 0.00 67 1010.7
20260505040408 16 229 0.0 0.0 0.00 0.00 0.00 64 1010.4
20260505034844 16 229 0.0 0.0 0.00 0.00 0.00 60 1010.6
20260505033348 17 229 0.0 0.0 0.00 0.00 0.00 58 1010.6
20260505031846 17 229 0.0 0.0 0.00 0.00 0.00 54 1010.6
20260505030345 18 229 0.0 0.0 0.00 0.00 0.00 52 1010.8
20260505024847 18 229 0.0 0.0 0.00 0.00 0.00 50 1010.9
20260505023346 18 229 0.0 0.0 0.00 0.00 0.00 50 1010.8
20260505021901 18 230 0.0 0.0 0.00 0.00 0.00 52 1010.7
20260505020421 19 232 0.0 0.0 0.00 0.00 0.00 49 1010.8
20260505014843 19 232 0.0 0.0 0.00 0.00 0.00 48 1010.5
20260505013347 20 232 0.0 0.0 0.00 0.00 0.00 46 1010.4
20260505011846 20 232 0.0 0.0 0.00 0.00 0.00 45 1010.3
20260505010411 21 233 0.0 0.0 0.00 0.00 0.00 42 1010.3
20260505004850 21 233 0.0 0.0 0.00 0.00 0.00 41 1009.9
20260505003353 21 260 0.0 0.0 0.00 0.00 0.00 40 1010.0
20260505001912 22 150 0.0 0.0 0.00 0.00 0.00 36 1010.0
20260505000355 22 179 0.0 0.0 0.00 0.00 0.00 37 1009.8
20260504234852 22 239 0.0 0.0 0.00 0.00 0.00 35 1009.7
20260504233351 22 210 0.0 0.0 0.00 0.00 0.00 33 1009.6
20260504231853 23 263 0.0 0.0 0.00 0.00 0.00 33 1009.6
20260504230352 23 261 0.0 0.0 0.00 0.00 0.00 32 1009.6
20260504224849 23 16 0.0 0.0 0.00 0.00 0.00 32 1009.6
20260504223356 23 56 0.0 0.0 0.00 0.00 0.00 32 1009.5
20260504221855 23 224 0.0 0.0 0.00 0.00 0.00 31 1009.5